Weather History for Valentine, NE

Change the Weather History Date:

Tuesday, April 15, 2014

  Actual Average Record
Temperature  
Mean Temperature 44 °F 46 °F  
Max Temperature 68 °F 60 °F 88 °F (1971)
Min Temperature 20 °F 33 °F 14 °F (1905)
Degree Days  
Heating Degree Days 21 19  
Month to date heating degree days 328 319  
Since 1 July heating degree days 6775 6448  
Cooling Degree Days 0 0  
Month to date cooling degree days 0 0  
Year to date cooling degree days 0 0  
Moisture  
Dew Point 19 °F    
Average Humidity 46    
Maximum Humidity 77    
Minimum Humidity 14    
Precipitation  
Precipitation 0.00 in 0.07 in 0.90 in (2012)
Month to date precipitation 0.43 0.93  
Year to date precipitation 1.58 2.74  
Snow  
Snow 0.00 in 0.20 in 4.30 in (2011)
Month to date snowfall 3.3 2.7  
Since 1 July snowfall 34.8 31.3  
Snow Depth 0.00 in    
Sea Level Pressure  
Sea Level Pressure 29.87 in    
Wind  
Wind Speed 10 mph (SSW)    
Max Wind Speed 21 mph    
Max Gust Speed 27 mph    
Visibility 10 miles    
Events      
T = Trace of Precipitation, MM = Missing Value Source: NWS Daily Summary

Daily Weather History Graph

Daily Weather History Graph

Search for Another Location

Airport:

Trip Planner

Search our weather history database for the weather conditions in past years. The results will help you decide how hot, cold, wet, or windy it might be!

Date:

Astronomy

Apr. 15, 2014 Rise Set
Actual Time 7:00 AM CDT 8:24 PM CDT
Civil Twilight 6:31 AM CDT 8:54 PM CDT
Nautical Twilight 5:55 AM CDT 9:29 PM CDT
Astronomical Twilight 5:18 AM CDT 10:07 PM CDT
Moon 9:08 PM CDT (4/15) 7:09 AM CDT (4/15)
Length of Visible Light 14h 23m
Length of Day
13h 24m
Full, 100% of the Moon is Illuminated
Apr 15
Full
Apr 22
Last Quarter
Apr 29
New
May 6
First Quarter
May 14
Full

Hourly Weather History & Observations

Time (CDT) Temp. Windchill Dew Point Humidity Pressure Visibility Wind Dir Wind Speed Gust Speed Precip Events Conditions
12:52 AM 19.9 °F 13.4 °F 14.0 °F 78% 30.22 in 10.0 mi SSW 4.6 mph - N/A   Clear
1:52 AM 21.9 °F - 14.0 °F 72% 30.19 in 10.0 mi Calm Calm - N/A   Clear
2:52 AM 21.9 °F 17.2 °F 12.0 °F 66% 30.17 in 10.0 mi WSW 3.5 mph - N/A   Clear
3:52 AM 23.0 °F 13.9 °F 14.0 °F 68% 30.15 in 10.0 mi SSE 8.1 mph - N/A   Clear
4:52 AM 24.1 °F 14.4 °F 14.0 °F 65% 30.12 in 10.0 mi SSE 9.2 mph - N/A   Clear
5:52 AM 26.1 °F 16.2 °F 12.9 °F 58% 30.09 in 10.0 mi South 10.4 mph - N/A   Clear
6:52 AM 25.0 °F 15.5 °F 14.0 °F 63% 30.06 in 10.0 mi South 9.2 mph - N/A   Clear
7:52 AM 27.0 °F 19.5 °F 16.0 °F 63% 30.04 in 10.0 mi SSE 6.9 mph - N/A   Clear
8:52 AM 30.9 °F 24.3 °F 18.0 °F 59% 30.01 in 10.0 mi South 6.9 mph - N/A   Clear
9:52 AM 39.9 °F 34.5 °F 21.0 °F 47% 29.96 in 10.0 mi South 8.1 mph - N/A   Clear
10:52 AM 48.0 °F - 21.9 °F 36% 29.91 in 10.0 mi South 17.3 mph - N/A   Clear
11:52 AM 54.0 °F - 21.9 °F 29% 29.87 in 10.0 mi South 15.0 mph - N/A   Clear
12:52 PM 57.0 °F - 24.1 °F 28% 29.83 in 10.0 mi SSW 15.0 mph 21.9 mph N/A   Clear
1:52 PM 63.0 °F - 21.0 °F 20% 29.77 in 10.0 mi SW 15.0 mph 20.7 mph N/A   Clear
2:52 PM 62.1 °F - 19.0 °F 19% 29.73 in 10.0 mi SW 12.7 mph - N/A   Partly Cloudy
3:52 PM 66.2 °F - 17.6 °F 15% 29.66 in 10.0 mi WSW 15.0 mph 21.9 mph N/A   Clear
4:52 PM 68.0 °F - 18.0 °F 15% 29.65 in 10.0 mi West 15.0 mph 24.2 mph N/A   Clear
5:52 PM 66.9 °F - 17.1 °F 15% 29.62 in 10.0 mi WSW 15.0 mph 21.9 mph N/A   Clear
6:52 PM 64.0 °F - 21.9 °F 20% 29.62 in 10.0 mi West 9.2 mph - N/A   Clear
7:52 PM 59.0 °F - 27.0 °F 29% 29.61 in 10.0 mi SW 8.1 mph - N/A   Clear
8:52 PM 54.0 °F - 28.9 °F 38% 29.61 in 10.0 mi SW 5.8 mph - N/A   Clear
9:52 PM 53.6 °F - 30.2 °F 41% 29.57 in 10.0 mi ESE 3.5 mph - N/A   Partly Cloudy
10:52 PM 53.1 °F - 27.0 °F 37% 29.56 in 10.0 mi South 3.5 mph - N/A   Clear
11:52 PM 53.1 °F - 26.1 °F 35% 29.51 in 10.0 mi SSW 6.9 mph - N/A   Scattered Clouds